Barter Island, AK

5:40 AM AKDT on April 28, 2017 (GMT -0800)
Barter Island LRRS

Weather History for PABA - November, 2012

Change the Weather History Date:

Friday, November 2, 2012

  Actual Average Record
Temperature  
Mean Temperature 20 °F -  
Max Temperature 17 °F 13 °F 28 °F (2002)
Min Temperature 17 °F 4 °F 0 °F (2004)
Degree Days  
Heating Degree Days 45    
Moisture  
Dew Point 17 °F    
Average Humidity 88    
Maximum Humidity 100    
Minimum Humidity 71    
Precipitation  
Precipitation 0.00 in - - ()
Sea Level Pressure  
Sea Level Pressure 30.05 in    
Wind  
Wind Speed 29 mph (NW)    
Max Wind Speed 41 mph    
Max Gust Speed 48 mph    
Visibility 4 miles    
Events Fog , Snow    
Averages and records for this station are not official NWS values.
T = Trace of Precipitation, MM = Missing Value Source: NWS Daily Summary

Daily Weather History Graph

Daily Weather History Graph

Search for Another Location

Airport or City:

Trip Planner

Search our weather history database for the weather conditions in past years. The results will help you decide how hot, cold, wet, or windy it might be!

Date:

Astronomy

Nov. 02, 2012 Rise Set
Actual Time 10:15 AM AKDT 4:19 PM AKDT
Civil Twilight 8:58 AM AKDT 5:35 PM AKDT
Nautical Twilight 7:42 AM AKDT 6:51 PM AKDT
Astronomical Twilight 6:31 AM AKDT 8:02 PM AKDT
Moon No Moon Rise No Moon Set
Length of Visible Light 8h 37m
Length of Day
6h 03m
Waning Gibbous, 86% of the Moon is Illuminated
Nov 2
Waning Gibbous
Nov 6
Last Quarter
Nov 13
New
Nov 20
First Quarter
Nov 28
Full

Hourly Weather History & Observations

Time (AKDT) Temp. Windchill Dew Point Humidity Pressure Visibility Wind Dir Wind Speed Gust Speed Precip Events Conditions
12:01 AM 21.0 °F 0.5 °F 19.9 °F 96% 30.02 in 1.2 mi West 40.3 mph 48.3 mph 0.00 in Snow Blowing Snow
12:10 AM 21.2 °F 0.7 °F 19.4 °F 93% 30.01 in 1.0 mi West 40.3 mph 47.2 mph 0.00 in   Overcast
12:14 AM 21.2 °F 0.9 °F 19.4 °F 93% 30.01 in 1.2 mi West 39.1 mph 46.0 mph 0.00 in   Overcast
12:19 AM 21.2 °F 1.9 °F 19.4 °F 93% 30.01 in 1.2 mi West 34.5 mph 47.2 mph 0.00 in Snow Blowing Snow
12:27 AM 21.2 °F 1.4 °F 19.4 °F 93% 30.01 in 2.0 mi West 36.8 mph 41.4 mph 0.00 in Snow Blowing Snow
12:37 AM 21.2 °F 1.9 °F 19.4 °F 93% 30.00 in 1.5 mi West 34.5 mph 48.3 mph 0.00 in Snow Blowing Snow
1:01 AM 21.0 °F 0.5 °F 19.9 °F 96% 30.01 in 1.8 mi West 40.3 mph 47.2 mph 0.00 in Snow Blowing Snow
1:57 AM 21.2 °F 0.7 °F 21.2 °F 100% 30.00 in 1.0 mi West 40.3 mph 47.2 mph 0.00 in   Overcast
2:01 AM 21.0 °F 0.5 °F 19.9 °F 96% 30.00 in 1.0 mi West 40.3 mph 47.2 mph 0.00 in Snow Light Snow
2:30 AM 21.2 °F 0.9 °F 21.2 °F 100% 30.01 in 1.2 mi West 39.1 mph 43.7 mph 0.00 in Snow Light Snow
2:38 AM 21.2 °F 0.7 °F 21.2 °F 100% 30.00 in 1.0 mi West 40.3 mph 48.3 mph 0.00 in Snow Light Snow
2:57 AM 21.2 °F 0.5 °F 21.2 °F 100% 30.00 in 0.8 mi West 41.4 mph 47.2 mph 0.00 in Snow Light Snow
3:01 AM 21.9 °F 1.7 °F 21.0 °F 96% 30.00 in 0.8 mi West 40.3 mph 47.2 mph 0.00 in Snow Light Snow
3:26 AM 21.2 °F 1.7 °F 21.2 °F 100% 30.00 in 1.0 mi West 35.7 mph 46.0 mph 0.00 in Snow Light Snow
3:36 AM 21.2 °F 1.7 °F 21.2 °F 100% 30.00 in 1.5 mi West 35.7 mph 44.9 mph 0.00 in Snow Light Snow
4:01 AM 21.9 °F 2.2 °F 21.0 °F 96% 29.99 in 1.5 mi West 38.0 mph 44.9 mph 0.00 in Snow Blowing Snow
4:10 AM 21.2 °F 0.9 °F 21.2 °F 100% 29.99 in 1.2 mi West 39.1 mph 46.0 mph 0.00 in Snow Light Snow
4:18 AM 21.2 °F 1.9 °F 21.2 °F 100% 29.98 in 1.0 mi West 34.5 mph 43.7 mph 0.00 in Snow Light Snow
4:43 AM 21.2 °F 2.2 °F 21.2 °F 100% 29.98 in 0.8 mi West 33.4 mph 38.0 mph 0.00 in Snow Light Snow
5:01 AM 21.2 °F 2.4 °F 21.2 °F 100% 29.98 in 0.5 mi West 32.2 mph 39.1 mph 0.00 in Fog , Snow Snow
5:11 AM 23.0 °F 6.0 °F 21.9 °F 96% 29.98 in 0.5 mi West 27.6 mph 42.6 mph 0.00 in Fog , Snow Snow
5:16 AM 23.0 °F 11.7 °F 21.2 °F 93% 29.98 in 0.8 mi NNW 11.5 mph 34.5 mph 0.00 in Snow Light Snow
5:20 AM 23.0 °F 9.6 °F 23.0 °F 100% 29.97 in 1.2 mi North 16.1 mph 34.5 mph 0.00 in Snow Light Snow
5:24 AM 23.0 °F 8.7 °F 21.2 °F 93% 29.97 in 3.0 mi North 18.4 mph - 0.00 in Snow Light Snow
5:39 AM 23.0 °F 7.6 °F 21.2 °F 93% 29.97 in 5.0 mi North 21.9 mph - 0.00 in Snow Light Snow
5:57 AM 23.0 °F 8.0 °F 21.2 °F 93% 29.98 in 2.5 mi North 20.7 mph - 0.00 in Snow Light Snow
6:01 AM 23.0 °F 8.0 °F 21.2 °F 93% 29.98 in 3.0 mi North 20.7 mph - 0.00 in Snow Light Snow
6:18 AM 21.2 °F 5.6 °F 21.2 °F 100% 29.99 in 3.0 mi North 20.7 mph - 0.00 in Snow Light Snow
6:29 AM 21.9 °F 6.2 °F 19.9 °F 92% 29.99 in 3.0 mi North 21.9 mph - 0.00 in Snow Light Snow
6:40 AM 21.2 °F 5.2 °F 19.4 °F 93% 30.00 in 2.5 mi North 21.9 mph - 0.00 in Snow Light Snow
6:47 AM 21.2 °F 5.2 °F 19.4 °F 93% 30.00 in 3.0 mi North 21.9 mph - 0.00 in Snow Light Snow
7:01 AM 21.9 °F 6.5 °F 19.0 °F 89% 30.01 in 4.0 mi North 20.7 mph 28.8 mph 0.00 in Snow Light Snow
7:14 AM 21.2 °F 4.9 °F 17.6 °F 86% 30.01 in 4.0 mi North 23.0 mph - 0.00 in Snow Light Snow
8:01 AM 21.0 °F 6.2 °F 16.0 °F 81% 30.04 in 10.0 mi North 18.4 mph - 0.00 in   Overcast
9:01 AM 19.4 °F 3.2 °F 15.8 °F 86% 30.06 in 7.0 mi NNW 20.7 mph - 0.00 in Snow Light Snow
9:12 AM 19.9 °F 4.8 °F 16.0 °F 85% 30.06 in 6.0 mi NNW 18.4 mph - 0.00 in Snow Light Snow
9:30 AM 19.4 °F 3.2 °F 15.8 °F 86% 30.07 in 6.0 mi NNW 20.7 mph - 0.00 in Snow Light Snow
9:54 AM 19.4 °F 4.1 °F 15.8 °F 86% 30.07 in 8.0 mi NNW 18.4 mph - 0.00 in Snow Light Snow
10:01 AM 19.9 °F 5.7 °F 15.1 °F 81% 30.08 in 4.0 mi NNW 16.1 mph - 0.00 in Snow Light Snow
10:24 AM 19.4 °F 4.1 °F 15.8 °F 86% 30.08 in 3.0 mi NNW 18.4 mph - 0.00 in Snow Light Snow
11:01 AM 21.0 °F 6.6 °F 14.0 °F 74% 30.09 in 9.0 mi NW 17.3 mph - 0.00 in Snow Light Snow
11:10 AM 21.2 °F 8.3 °F 15.8 °F 80% 30.09 in 9.0 mi WNW 13.8 mph - 0.00 in Snow Light Snow
11:36 AM 21.2 °F 7.3 °F 14.0 °F 74% 30.09 in 6.0 mi NW 16.1 mph - 0.00 in Snow Light Snow
11:49 AM 21.2 °F 7.3 °F 14.0 °F 74% 30.10 in 7.0 mi NW 16.1 mph - 0.00 in Snow Light Snow
12:01 PM 21.0 °F 6.6 °F 14.0 °F 74% 30.10 in 6.0 mi NW 17.3 mph - 0.00 in Snow Light Snow
1:01 PM 21.0 °F 7.6 °F 16.0 °F 81% 30.10 in 5.0 mi WNW 15.0 mph 20.7 mph 0.00 in Snow Light Snow
1:38 PM 21.2 °F 5.6 °F 15.8 °F 80% 30.10 in 1.8 mi WNW 20.7 mph 29.9 mph 0.00 in Snow Light Snow
1:51 PM 19.4 °F 6.0 °F 15.8 °F 86% 30.10 in 3.0 mi West 13.8 mph - 0.00 in Snow Light Snow
2:01 PM 19.0 °F 4.5 °F 15.1 °F 85% 30.10 in 9.0 mi West 16.1 mph - 0.00 in Snow Light Snow
2:40 PM 19.4 °F 4.5 °F 17.6 °F 93% 30.09 in 1.0 mi NNW 17.3 mph - 0.00 in Snow Light Snow
2:45 PM 19.4 °F 5.5 °F 17.6 °F 93% 30.09 in 0.8 mi NW 15.0 mph 19.6 mph 0.00 in Snow Light Snow
2:50 PM 19.4 °F 4.5 °F 15.8 °F 86% 30.09 in 1.2 mi NNW 17.3 mph - 0.00 in Snow Light Snow
2:59 PM 19.4 °F 3.2 °F 15.8 °F 86% 30.09 in 3.0 mi NNW 20.7 mph 24.2 mph 0.00 in Snow Light Snow
3:01 PM 19.9 °F 3.5 °F 15.1 °F 81% 30.09 in 4.0 mi NNW 21.9 mph - 0.00 in Snow Light Snow
3:27 PM 19.4 °F 5.0 °F 14.0 °F 80% 30.09 in 10.0 mi NNW 16.1 mph - 0.00 in   Overcast
3:45 PM 19.4 °F 3.6 °F 15.8 °F 86% 30.10 in 2.5 mi NNW 19.6 mph - 0.00 in Snow Light Snow
3:51 PM 19.4 °F 5.5 °F 15.8 °F 86% 30.09 in 1.2 mi NNW 15.0 mph 23.0 mph 0.00 in Snow Light Snow
4:01 PM 19.4 °F 6.6 °F 15.8 °F 86% 30.09 in 1.8 mi NW 12.7 mph - 0.00 in Snow Light Snow
4:08 PM 19.4 °F 5.5 °F 15.8 °F 86% 30.09 in 3.0 mi NW 15.0 mph - 0.00 in Snow Light Snow
4:46 PM 19.4 °F 6.0 °F 15.8 °F 86% 30.10 in 3.0 mi NW 13.8 mph - 0.00 in Snow Light Snow
4:53 PM 19.4 °F 7.2 °F 15.8 °F 86% 30.09 in 2.5 mi NNW 11.5 mph - 0.00 in Snow Light Snow
4:57 PM 19.4 °F 7.2 °F 14.0 °F 80% 30.10 in 5.0 mi NW 11.5 mph - 0.00 in Snow Light Snow
5:01 PM 19.0 °F 4.0 °F 14.0 °F 81% 30.10 in 4.0 mi NW 17.3 mph 20.7 mph 0.00 in Snow Light Snow
5:49 PM 19.4 °F 5.5 °F 12.2 °F 74% 30.10 in 9.0 mi NW 15.0 mph - 0.00 in   Overcast
6:01 PM 19.9 °F 5.7 °F 12.0 °F 71% 30.10 in 9.0 mi NW 16.1 mph 25.3 mph 0.00 in Snow Light Snow
7:01 PM 19.0 °F 3.2 °F 10.9 °F 71% 30.11 in 9.0 mi NW 19.6 mph - 0.00 in   Overcast
8:01 PM 18.0 °F 3.1 °F 10.0 °F 71% 30.11 in 9.0 mi NNW 16.1 mph - 0.00 in Snow Light Snow
9:01 PM 18.0 °F 0.9 °F 10.9 °F 74% 30.12 in 8.0 mi NNW 21.9 mph - 0.00 in Snow Light Snow
10:01 PM 18.0 °F 2.6 °F 10.0 °F 71% 30.12 in 10.0 mi NNW 17.3 mph - 0.00 in   Overcast
11:01 PM 17.6 °F 7.3 °F 12.2 °F 79% 30.13 in 1.8 mi NW 8.1 mph - 0.00 in Snow Light Snow
11:11 PM 17.6 °F 5.0 °F 12.2 °F 79% 30.13 in 4.0 mi NW 11.5 mph - 0.00 in Snow Light Snow
11:40 PM 17.6 °F 1.3 °F 12.2 °F 79% 30.13 in 9.0 mi NNW 19.6 mph - 0.00 in Snow Light Snow
11:46 PM 18.0 °F 3.1 °F 12.0 °F 78% 30.13 in 9.0 mi NNW 16.1 mph - 0.00 in Snow Light Snow